| time (UTC) | temp C | wind direction | speed KPH | gust KPH | rain 1hr cm | rain 24hr cm | rain mn cm | humidity % | barometer mb |
| 20260906195639 | 38 | 355 | 0.0 | 3.2 | 0.00 | 0.00 | 0.00 | 31 | 1014.6 |
| 20260906195135 | 37 | 311 | 0.0 | 1.6 | 0.00 | 0.00 | 0.00 | 32 | 1015.3 |
| 20260906194631 | 37 | 323 | 3.2 | 3.2 | 0.00 | 0.00 | 0.00 | 34 | 1015.1 |
| 20260906194126 | 37 | 231 | 0.0 | 8.0 | 0.00 | 0.00 | 0.00 | 31 | 1015.1 |
| 20260906193626 | 37 | 281 | 3.2 | 3.2 | 0.00 | 0.00 | 0.00 | 32 | 1015.3 |
| 20260906193121 | 38 | 330 | 3.2 | 8.0 | 0.00 | 0.00 | 0.00 | 32 | 1015.4 |
| 20260906192617 | 38 | 259 | 4.8 | 11.3 | 0.00 | 0.00 | 0.00 | 31 | 1015.5 |
| 20260906192116 | 38 | 187 | 1.6 | 4.8 | 0.00 | 0.00 | 0.00 | 31 | 1015.2 |
| 20260906191611 | 38 | 279 | 4.8 | 9.7 | 0.00 | 0.00 | 0.00 | 30 | 1015.6 |
| 20260906191111 | 39 | 23 | 3.2 | 4.8 | 0.00 | 0.00 | 0.00 | 29 | 1015.8 |
| 20260906190611 | 39 | 241 | 3.2 | 4.8 | 0.00 | 0.00 | 0.00 | 30 | 1015.8 |
| 20260906190105 | 37 | 194 | 0.0 | 6.4 | 0.00 | 0.00 | 0.00 | 31 | 1015.7 |
| 20260906185604 | 37 | 263 | 4.8 | 9.7 | 0.00 | 0.00 | 0.00 | 31 | 1016.0 |
| 20260906185103 | 38 | 227 | 6.4 | 6.4 | 0.00 | 0.00 | 0.00 | 30 | 1015.5 |
| 20260906184558 | 38 | 295 | 8.0 | 9.7 | 0.00 | 0.00 | 0.00 | 31 | 1016.0 |
| 20260906184054 | 38 | 340 | 3.2 | 6.4 | 0.00 | 0.00 | 0.00 | 31 | 1016.0 |
| 20260906183549 | 38 | 322 | 0.0 | 4.8 | 0.00 | 0.00 | 0.00 | 31 | 1016.2 |
| 20260906183045 | 38 | 275 | 1.6 | 4.8 | 0.00 | 0.00 | 0.00 | 31 | 1016.2 |
| 20260906182540 | 38 | 291 | 0.0 | 3.2 | 0.00 | 0.00 | 0.00 | 31 | 1016.3 |
| 20260906182036 | 38 | 145 | 0.0 | 4.8 | 0.00 | 0.00 | 0.00 | 30 | 1016.5 |
| 20260906181531 | 38 | 43 | 1.6 | 3.2 | 0.00 | 0.00 | 0.00 | 31 | 1016.3 |
| 20260906181028 | 38 | 45 | 3.2 | 3.2 | 0.00 | 0.00 | 0.00 | 32 | 1016.6 |
| 20260906180522 | 38 | 118 | 3.2 | 3.2 | 0.00 | 0.00 | 0.00 | 32 | 1016.5 |
| 20260906180021 | 38 | 282 | 3.2 | 4.8 | 0.00 | 0.00 | 0.00 | 31 | 1016.6 |
| 20260906175520 | 39 | 198 | 4.8 | 9.7 | 0.00 | 0.00 | 0.00 | 30 | 1016.8 |
| 20260906175015 | 40 | 353 | 1.6 | 4.8 | 0.00 | 0.00 | 0.00 | 29 | 1017.1 |
| 20260906174513 | 39 | 321 | 3.2 | 4.8 | 0.00 | 0.00 | 0.00 | 31 | 1017.0 |
| 20260906174008 | 39 | 300 | 1.6 | 6.4 | 0.00 | 0.00 | 0.00 | 30 | 1017.1 |
| 20260906173508 | 38 | 295 | 0.0 | 4.8 | 0.00 | 0.00 | 0.00 | 31 | 1017.2 |
| 20260906173004 | 38 | 271 | 3.2 | 9.7 | 0.00 | 0.00 | 0.00 | 32 | 1017.3 |
| 20260906172459 | 38 | 200 | 3.2 | 6.4 | 0.00 | 0.00 | 0.00 | 31 | 1017.4 |
| 20260906171955 | 38 | 253 | 3.2 | 6.4 | 0.00 | 0.00 | 0.00 | 32 | 1017.5 |
| 20260906171454 | 38 | 98 | 4.8 | 4.8 | 0.00 | 0.00 | 0.00 | 30 | 1017.9 |
| 20260906170950 | 38 | 44 | 0.0 | 3.2 | 0.00 | 0.00 | 0.00 | 32 | 1017.7 |
| 20260906170446 | 37 | 210 | 3.2 | 4.8 | 0.00 | 0.00 | 0.00 | 32 | 1018.0 |
| 20260906165943 | 37 | 210 | 3.2 | 4.8 | 0.00 | 0.00 | 0.00 | 33 | 1017.8 |
| 20260906165442 | 37 | 269 | 6.4 | 9.7 | 0.00 | 0.00 | 0.00 | 34 | 1017.9 |
| 20260906164937 | 37 | 257 | 3.2 | 8.0 | 0.00 | 0.00 | 0.00 | 34 | 1017.9 |
| 20260906164436 | 36 | 273 | 4.8 | 6.4 | 0.00 | 0.00 | 0.00 | 34 | 1018.1 |
| 20260906163933 | 36 | 258 | 4.8 | 4.8 | 0.00 | 0.00 | 0.00 | 35 | 1018.0 |
| 20260906163428 | 36 | 329 | 3.2 | 8.0 | 0.00 | 0.00 | 0.00 | 36 | 1018.0 |
| 20260906162926 | 37 | 286 | 3.2 | 6.4 | 0.00 | 0.00 | 0.00 | 35 | 1018.2 |
| 20260906162425 | 36 | 281 | 4.8 | 4.8 | 0.00 | 0.00 | 0.00 | 35 | 1018.1 |
| 20260906161921 | 36 | 341 | 6.4 | 8.0 | 0.00 | 0.00 | 0.00 | 36 | 1017.9 |
| 20260906161420 | 36 | 305 | 6.4 | 8.0 | 0.00 | 0.00 | 0.00 | 36 | 1018.1 |
| 20260906160919 | 36 | 314 | 3.2 | 6.4 | 0.00 | 0.00 | 0.00 | 36 | 1018.2 |
| 20260906160418 | 36 | 337 | 3.2 | 4.8 | 0.00 | 0.00 | 0.00 | 37 | 1017.8 |
| 20260906155916 | 35 | 258 | 6.4 | 6.4 | 0.00 | 0.00 | 0.00 | 37 | 1017.9 |
| 20260906155410 | 35 | 256 | 4.8 | 6.4 | 0.00 | 0.00 | 0.00 | 38 | 1017.7 |
| 20260906154907 | 35 | 287 | 3.2 | 3.2 | 0.00 | 0.00 | 0.00 | 38 | 1017.9 |
| 20260906154401 | 35 | 272 | 4.8 | 4.8 | 0.00 | 0.00 | 0.00 | 38 | 1018.0 |
| 20260906153900 | 35 | 340 | 3.2 | 6.4 | 0.00 | 0.00 | 0.00 | 39 | 1017.8 |
| 20260906153359 | 34 | 312 | 1.6 | 9.7 | 0.00 | 0.00 | 0.00 | 39 | 1017.7 |
| 20260906152854 | 34 | 336 | 3.2 | 6.4 | 0.00 | 0.00 | 0.00 | 40 | 1017.9 |
| 20260906152354 | 34 | 275 | 1.6 | 8.0 | 0.00 | 0.00 | 0.00 | 40 | 1017.8 |
| 20260906151854 | 34 | 292 | 4.8 | 6.4 | 0.00 | 0.00 | 0.00 | 40 | 1017.7 |
| 20260906151349 | 33 | 335 | 3.2 | 6.4 | 0.00 | 0.00 | 0.00 | 40 | 1017.7 |
| 20260906150845 | 33 | 332 | 3.2 | 6.4 | 0.00 | 0.00 | 0.00 | 41 | 1017.7 |
| 20260906150340 | 33 | 289 | 1.6 | 8.0 | 0.00 | 0.00 | 0.00 | 42 | 1017.5 |
| 20260906145840 | 33 | 325 | 6.4 | 6.4 | 0.00 | 0.00 | 0.00 | 43 | 1017.9 |
| 20260906145338 | 32 | 219 | 1.6 | 4.8 | 0.00 | 0.00 | 0.00 | 43 | 1017.7 |
| 20260906144834 | 32 | 249 | 3.2 | 4.8 | 0.00 | 0.00 | 0.00 | 43 | 1017.8 |
| 20260906144328 | 32 | 264 | 0.0 | 4.8 | 0.00 | 0.00 | 0.00 | 44 | 1017.5 |
| 20260906143828 | 32 | 331 | 8.0 | 8.0 | 0.00 | 0.00 | 0.00 | 44 | 1017.6 |
| 20260906143325 | 31 | 218 | 0.0 | 3.2 | 0.00 | 0.00 | 0.00 | 46 | 1017.6 |
| 20260906142820 | 31 | 312 | 3.2 | 4.8 | 0.00 | 0.00 | 0.00 | 48 | 1017.7 |
| 20260906142315 | 30 | 294 | 1.6 | 3.2 | 0.00 | 0.00 | 0.00 | 50 | 1017.7 |
| 20260906141814 | 30 | 253 | 1.6 | 3.2 | 0.00 | 0.00 | 0.00 | 51 | 1017.8 |
| 20260906141309 | 29 | 278 | 1.6 | 3.2 | 0.00 | 0.00 | 0.00 | 52 | 1017.8 |
| 20260906140808 | 28 | 311 | 1.6 | 3.2 | 0.00 | 0.00 | 0.00 | 54 | 1017.7 |
| 20260906140303 | 28 | 224 | 0.0 | 3.2 | 0.00 | 0.00 | 0.00 | 55 | 1017.9 |
| 20260906135801 | 27 | 309 | 1.6 | 1.6 | 0.00 | 0.00 | 0.00 | 58 | 1017.9 |
| 20260906135255 | 27 | 292 | 1.6 | 3.2 | 0.00 | 0.00 | 0.00 | 59 | 1017.6 |
| 20260906134751 | 26 | 292 | 0.0 | 1.6 | 0.00 | 0.00 | 0.00 | 61 | 1017.6 |
| 20260906134246 | 26 | 334 | 1.6 | 3.2 | 0.00 | 0.00 | 0.00 | 65 | 1017.4 |
| 20260906133742 | 26 | 294 | 1.6 | 3.2 | 0.00 | 0.00 | 0.00 | 67 | 1017.5 |
| 20260906133237 | 25 | 323 | 1.6 | 3.2 | 0.00 | 0.00 | 0.00 | 68 | 1017.5 |
| 20260906132733 | 25 | 306 | 0.0 | 3.2 | 0.00 | 0.00 | 0.00 | 69 | 1017.2 |
| 20260906132228 | 24 | 346 | 0.0 | 1.6 | 0.00 | 0.00 | 0.00 | 71 | 1017.3 |
| 20260906131723 | 24 | 333 | 0.0 | 1.6 | 0.00 | 0.00 | 0.00 | 74 | 1017.5 |
| 20260906131218 | 23 | 329 | 0.0 | 3.2 | 0.00 | 0.00 | 0.00 | 74 | 1017.3 |
| 20260906130714 | 23 | 325 | 1.6 | 1.6 | 0.00 | 0.00 | 0.00 | 75 | 1017.2 |
| 20260906130209 | 23 | 321 | 0.0 | 3.2 | 0.00 | 0.00 | 0.00 | 75 | 1017.2 |
| 20260906125707 | 23 | 319 | 0.0 | 3.2 | 0.00 | 0.00 | 0.00 | 76 | 1017.1 |
| 20260906125206 | 22 | 324 | 0.0 | 3.2 | 0.00 | 0.00 | 0.00 | 76 | 1017.0 |
| 20260906124701 | 22 | 322 | 0.0 | 1.6 | 0.00 | 0.00 | 0.00 | 76 | 1016.8 |
| 20260906124156 | 22 | 319 | 0.0 | 1.6 | 0.00 | 0.00 | 0.00 | 76 | 1016.6 |
| 20260906123655 | 22 | 337 | 1.6 | 1.6 | 0.00 | 0.00 | 0.00 | 77 | 1016.8 |
| 20260906123151 | 22 | 301 | 0.0 | 0.0 | 0.00 | 0.00 | 0.00 | 77 | 1016.6 |
| 20260906122649 | 22 | 315 | 0.0 | 1.6 | 0.00 | 0.00 | 0.00 | 77 | 1016.4 |
| 20260906122145 | 22 | 309 | 0.0 | 0.0 | 0.00 | 0.00 | 0.00 | 77 | 1016.5 |
| 20260906121641 | 22 | 309 | 0.0 | 1.6 | 0.00 | 0.00 | 0.00 | 76 | 1016.4 |
| 20260906121138 | 22 | 321 | 0.0 | 0.0 | 0.00 | 0.00 | 0.00 | 76 | 1016.2 |
| 20260906120633 | 22 | 315 | 0.0 | 0.0 | 0.00 | 0.00 | 0.00 | 77 | 1016.5 |
| 20260906120131 | 22 | 326 | 0.0 | 0.0 | 0.00 | 0.00 | 0.00 | 77 | 1016.2 |
| 20260906115631 | 22 | 297 | 0.0 | 0.0 | 0.00 | 0.00 | 0.00 | 77 | 1016.3 |
| 20260906115126 | 22 | 297 | 0.0 | 0.0 | 0.00 | 0.00 | 0.00 | 78 | 1016.1 |
| 20260906114625 | 22 | 324 | 0.0 | 1.6 | 0.00 | 0.00 | 0.00 | 78 | 1016.2 |
| 20260906114120 | 22 | 322 | 0.0 | 0.0 | 0.00 | 0.00 | 0.00 | 78 | 1016.0 |
| 20260906113620 | 22 | 343 | 0.0 | 1.6 | 0.00 | 0.00 | 0.00 | 77 | 1016.0 |
| 20260906113120 | 22 | 315 | 0.0 | 0.0 | 0.00 | 0.00 | 0.00 | 77 | 1016.1 |
| 20260906112620 | 22 | 315 | 0.0 | 0.0 | 0.00 | 0.00 | 0.00 | 78 | 1016.3 |
| 20260906112117 | 22 | 322 | 0.0 | 1.6 | 0.00 | 0.00 | 0.00 | 77 | 1015.8 |
| 20260906111616 | 22 | 318 | 1.6 | 3.2 | 0.00 | 0.00 | 0.00 | 77 | 1015.9 |
| 20260906111111 | 22 | 343 | 0.0 | 0.0 | 0.00 | 0.00 | 0.00 | 77 | 1016.2 |
| 20260906110606 | 22 | 343 | 0.0 | 1.6 | 0.00 | 0.00 | 0.00 | 77 | 1015.9 |
| 20260906110106 | 22 | 309 | 0.0 | 1.6 | 0.00 | 0.00 | 0.00 | 77 | 1015.8 |
| 20260906105600 | 22 | 297 | 0.0 | 1.6 | 0.00 | 0.00 | 0.00 | 77 | 1015.7 |
| 20260906105057 | 22 | 322 | 0.0 | 0.0 | 0.00 | 0.00 | 0.00 | 77 | 1015.8 |
| 20260906104555 | 22 | 322 | 0.0 | 1.6 | 0.00 | 0.00 | 0.00 | 76 | 1015.7 |
| 20260906104050 | 22 | 339 | 0.0 | 1.6 | 0.00 | 0.00 | 0.00 | 76 | 1015.6 |
| 20260906103548 | 22 | 343 | 0.0 | 0.0 | 0.00 | 0.00 | 0.00 | 76 | 1015.8 |
| 20260906103043 | 22 | 315 | 0.0 | 1.6 | 0.00 | 0.00 | 0.00 | 76 | 1015.6 |
| 20260906102544 | 22 | 322 | 0.0 | 1.6 | 0.00 | 0.00 | 0.00 | 75 | 1015.7 |
| 20260906102039 | 22 | 322 | 1.6 | 1.6 | 0.00 | 0.00 | 0.00 | 75 | 1015.8 |
| 20260906101539 | 22 | 309 | 0.0 | 0.0 | 0.00 | 0.00 | 0.00 | 75 | 1015.9 |
| 20260906101033 | 22 | 322 | 0.0 | 0.0 | 0.00 | 0.00 | 0.00 | 75 | 1015.7 |
| 20260906100529 | 22 | 306 | 0.0 | 1.6 | 0.00 | 0.00 | 0.00 | 74 | 1016.0 |
| 20260906100030 | 22 | 322 | 0.0 | 0.0 | 0.00 | 0.00 | 0.00 | 74 | 1015.6 |
| 20260906095524 | 22 | 309 | 0.0 | 0.0 | 0.00 | 0.00 | 0.00 | 74 | 1015.9 |
| 20260906095020 | 23 | 297 | 0.0 | 1.6 | 0.00 | 0.00 | 0.00 | 74 | 1015.8 |
| 20260906094518 | 23 | 309 | 1.6 | 3.2 | 0.00 | 0.00 | 0.00 | 73 | 1016.1 |
| 20260906094014 | 23 | 334 | 1.6 | 1.6 | 0.00 | 0.00 | 0.00 | 74 | 1015.9 |
| 20260906093510 | 23 | 333 | 1.6 | 1.6 | 0.00 | 0.00 | 0.00 | 73 | 1015.7 |
| 20260906093011 | 23 | 316 | 1.6 | 3.2 | 0.00 | 0.00 | 0.00 | 73 | 1015.8 |
| 20260906092510 | 23 | 334 | 0.0 | 1.6 | 0.00 | 0.00 | 0.00 | 73 | 1015.8 |
| 20260906092006 | 23 | 327 | 0.0 | 1.6 | 0.00 | 0.00 | 0.00 | 72 | 1015.6 |
| 20260906091502 | 23 | 341 | 0.0 | 1.6 | 0.00 | 0.00 | 0.00 | 72 | 1015.5 |
| 20260906090958 | 23 | 331 | 0.0 | 1.6 | 0.00 | 0.00 | 0.00 | 72 | 1015.6 |
| 20260906090453 | 23 | 333 | 0.0 | 0.0 | 0.00 | 0.00 | 0.00 | 71 | 1015.8 |
| 20260906085953 | 23 | 320 | 0.0 | 1.6 | 0.00 | 0.00 | 0.00 | 71 | 1015.8 |
| 20260906085452 | 23 | 332 | 0.0 | 1.6 | 0.00 | 0.00 | 0.00 | 71 | 1015.6 |
| 20260906084951 | 23 | 352 | 0.0 | 1.6 | 0.00 | 0.00 | 0.00 | 71 | 1015.4 |
| 20260906084446 | 23 | 328 | 1.6 | 1.6 | 0.00 | 0.00 | 0.00 | 70 | 1015.5 |
| 20260906083945 | 23 | 326 | 0.0 | 1.6 | 0.00 | 0.00 | 0.00 | 71 | 1015.4 |
| 20260906083441 | 23 | 311 | 1.6 | 1.6 | 0.00 | 0.00 | 0.00 | 70 | 1015.5 |
| 20260906082940 | 23 | 326 | 0.0 | 1.6 | 0.00 | 0.00 | 0.00 | 70 | 1015.5 |
| 20260906082436 | 23 | 329 | 1.6 | 1.6 | 0.00 | 0.00 | 0.00 | 70 | 1015.5 |
| 20260906081931 | 23 | 336 | 1.6 | 1.6 | 0.00 | 0.00 | 0.00 | 70 | 1015.6 |
| 20260906081426 | 24 | 333 | 0.0 | 1.6 | 0.00 | 0.00 | 0.00 | 69 | 1015.3 |
| 20260906080923 | 24 | 335 | 0.0 | 0.0 | 0.00 | 0.00 | 0.00 | 69 | 1015.4 |
| 20260906080419 | 24 | 331 | 1.6 | 1.6 | 0.00 | 0.00 | 0.00 | 69 | 1015.6 |
| 20260906075918 | 23 | 329 | 0.0 | 1.6 | 0.00 | 0.00 | 0.00 | 69 | 1015.4 |
| 20260906075414 | 23 | 309 | 0.0 | 0.0 | 0.00 | 0.00 | 0.00 | 69 | 1015.6 |
| 20260906074909 | 23 | 325 | 0.0 | 1.6 | 0.00 | 0.00 | 0.00 | 69 | 1015.4 |
| 20260906074409 | 24 | 319 | 0.0 | 1.6 | 0.00 | 0.00 | 0.00 | 69 | 1015.6 |
| 20260906073908 | 24 | 316 | 1.6 | 1.6 | 0.00 | 0.00 | 0.00 | 69 | 1015.3 |
| 20260906073402 | 24 | 305 | 0.0 | 1.6 | 0.00 | 0.00 | 0.00 | 68 | 1015.3 |
| 20260906072859 | 24 | 336 | 1.6 | 1.6 | 0.00 | 0.00 | 0.00 | 68 | 1015.2 |
| 20260906072354 | 24 | 318 | 1.6 | 1.6 | 0.00 | 0.00 | 0.00 | 67 | 1015.3 |
| 20260906071850 | 24 | 323 | 0.0 | 1.6 | 0.00 | 0.00 | 0.00 | 67 | 1015.3 |
| 20260906071345 | 24 | 327 | 0.0 | 1.6 | 0.00 | 0.00 | 0.00 | 67 | 1015.4 |
| 20260906070841 | 24 | 322 | 0.0 | 1.6 | 0.00 | 0.00 | 0.00 | 66 | 1015.2 |
| 20260906070337 | 25 | 333 | 0.0 | 1.6 | 0.00 | 0.00 | 0.00 | 66 | 1015.3 |
| 20260906065832 | 25 | 321 | 1.6 | 1.6 | 0.00 | 0.00 | 0.00 | 65 | 1015.3 |
| 20260906065326 | 25 | 313 | 0.0 | 1.6 | 0.00 | 0.00 | 0.00 | 65 | 1015.2 |
| 20260906064823 | 25 | 331 | 0.0 | 1.6 | 0.00 | 0.00 | 0.00 | 65 | 1015.3 |
| 20260906064319 | 25 | 343 | 0.0 | 1.6 | 0.00 | 0.00 | 0.00 | 64 | 1015.3 |
| 20260906063818 | 25 | 329 | 0.0 | 1.6 | 0.00 | 0.00 | 0.00 | 64 | 1015.4 |
| 20260906063314 | 25 | 322 | 0.0 | 1.6 | 0.00 | 0.00 | 0.00 | 63 | 1015.3 |
| 20260906062809 | 25 | 325 | 0.0 | 1.6 | 0.00 | 0.00 | 0.00 | 63 | 1015.4 |
| 20260906062308 | 25 | 324 | 1.6 | 1.6 | 0.00 | 0.00 | 0.00 | 62 | 1015.5 |
| 20260906061804 | 25 | 333 | 0.0 | 1.6 | 0.00 | 0.00 | 0.00 | 62 | 1015.4 |
| 20260906061301 | 25 | 333 | 0.0 | 1.6 | 0.00 | 0.00 | 0.00 | 61 | 1015.3 |
| 20260906060801 | 25 | 333 | 0.0 | 1.6 | 0.00 | 0.00 | 0.00 | 61 | 1015.5 |
| 20260906060258 | 26 | 337 | 0.0 | 1.6 | 0.00 | 0.00 | 0.00 | 60 | 1015.3 |
| 20260906055754 | 26 | 341 | 0.0 | 1.6 | 0.00 | 0.00 | 0.00 | 60 | 1015.3 |
| 20260906055249 | 26 | 327 | 1.6 | 1.6 | 0.00 | 0.00 | 0.00 | 59 | 1015.2 |
| 20260906054744 | 26 | 309 | 0.0 | 1.6 | 0.00 | 0.00 | 0.00 | 58 | 1015.2 |
| 20260906054240 | 26 | 333 | 0.0 | 0.0 | 0.00 | 0.00 | 0.00 | 58 | 1015.4 |
| 20260906053736 | 26 | 333 | 0.0 | 0.0 | 0.00 | 0.00 | 0.00 | 57 | 1015.4 |
| 20260906053232 | 26 | 333 | 0.0 | 1.6 | 0.00 | 0.00 | 0.00 | 57 | 1015.5 |
| 20260906052726 | 27 | 322 | 0.0 | 1.6 | 0.00 | 0.00 | 0.00 | 56 | 1015.3 |
| 20260906052223 | 27 | 333 | 0.0 | 1.6 | 0.00 | 0.00 | 0.00 | 56 | 1015.3 |
| 20260906051720 | 27 | 336 | 0.0 | 1.6 | 0.00 | 0.00 | 0.00 | 55 | 1015.6 |
| 20260906051219 | 27 | 299 | 0.0 | 1.6 | 0.00 | 0.00 | 0.00 | 54 | 1015.2 |
| 20260906050714 | 27 | 305 | 1.6 | 1.6 | 0.00 | 0.00 | 0.00 | 54 | 1015.3 |
| 20260906050210 | 28 | 317 | 0.0 | 1.6 | 0.00 | 0.00 | 0.00 | 53 | 1015.3 |
| 20260906045708 | 28 | 326 | 1.6 | 1.6 | 0.00 | 0.00 | 0.00 | 52 | 1015.1 |
| 20260906045202 | 28 | 333 | 0.0 | 1.6 | 0.00 | 0.00 | 0.00 | 51 | 1015.3 |
| 20260906044659 | 28 | 329 | 0.0 | 1.6 | 0.00 | 0.00 | 0.00 | 51 | 1015.2 |
| 20260906044154 | 28 | 345 | 0.0 | 1.6 | 0.00 | 0.00 | 0.00 | 51 | 1015.1 |
| 20260906043650 | 28 | 333 | 0.0 | 1.6 | 0.00 | 0.00 | 0.00 | 51 | 1015.0 |
| 20260906043146 | 28 | 343 | 0.0 | 1.6 | 0.00 | 0.00 | 0.00 | 51 | 1015.1 |
| 20260906042645 | 28 | 25 | 0.0 | 1.6 | 0.00 | 0.00 | 0.00 | 51 | 1015.0 |
| 20260906042145 | 28 | 329 | 0.0 | 3.2 | 0.00 | 0.00 | 0.00 | 52 | 1015.2 |
| 20260906041641 | 28 | 311 | 3.2 | 3.2 | 0.00 | 0.00 | 0.00 | 52 | 1015.2 |
| 20260906041136 | 28 | 353 | 0.0 | 1.6 | 0.00 | 0.00 | 0.00 | 53 | 1015.2 |
| 20260906040631 | 28 | 320 | 0.0 | 3.2 | 0.00 | 0.00 | 0.00 | 52 | 1015.2 |
| 20260906040127 | 28 | 333 | 0.0 | 3.2 | 0.00 | 0.00 | 0.00 | 52 | 1015.2 |
| 20260906035622 | 28 | 342 | 1.6 | 1.6 | 0.00 | 0.00 | 0.00 | 52 | 1015.3 |
| 20260906035117 | 28 | 333 | 0.0 | 3.2 | 0.00 | 0.00 | 0.00 | 51 | 1015.1 |
| 20260906034617 | 28 | 352 | 0.0 | 1.6 | 0.00 | 0.00 | 0.00 | 51 | 1015.1 |
| 20260906034112 | 28 | 44 | 0.0 | 1.6 | 0.00 | 0.00 | 0.00 | 50 | 1015.0 |
| 20260906033608 | 28 | 321 | 0.0 | 1.6 | 0.00 | 0.00 | 0.00 | 50 | 1015.1 |
| 20260906033103 | 28 | 25 | 0.0 | 1.6 | 0.00 | 0.00 | 0.00 | 50 | 1015.1 |
| 20260906032600 | 29 | 333 | 0.0 | 1.6 | 0.00 | 0.00 | 0.00 | 50 | 1015.2 |
| 20260906032059 | 29 | 333 | 0.0 | 1.6 | 0.00 | 0.00 | 0.00 | 50 | 1015.2 |
| 20260906031555 | 29 | 320 | 0.0 | 1.6 | 0.00 | 0.00 | 0.00 | 50 | 1014.9 |
| 20260906031050 | 29 | 310 | 0.0 | 1.6 | 0.00 | 0.00 | 0.00 | 49 | 1014.9 |
| 20260906030549 | 30 | 333 | 0.0 | 1.6 | 0.00 | 0.00 | 0.00 | 49 | 1015.1 |
| 20260906030049 | 30 | 352 | 0.0 | 1.6 | 0.00 | 0.00 | 0.00 | 48 | 1014.8 |
| 20260906025549 | 30 | 293 | 0.0 | 1.6 | 0.00 | 0.00 | 0.00 | 47 | 1014.9 |
| 20260906025048 | 30 | 326 | 0.0 | 1.6 | 0.00 | 0.00 | 0.00 | 47 | 1014.9 |
| 20260906024544 | 30 | 339 | 0.0 | 3.2 | 0.00 | 0.00 | 0.00 | 47 | 1014.9 |
| 20260906024044 | 30 | 334 | 1.6 | 3.2 | 0.00 | 0.00 | 0.00 | 47 | 1014.6 |
| 20260906023540 | 30 | 27 | 3.2 | 3.2 | 0.00 | 0.00 | 0.00 | 47 | 1014.5 |
| 20260906023040 | 30 | 328 | 0.0 | 3.2 | 0.00 | 0.00 | 0.00 | 48 | 1014.6 |
| 20260906022535 | 30 | 325 | 3.2 | 3.2 | 0.00 | 0.00 | 0.00 | 48 | 1014.3 |
| 20260906022030 | 30 | 313 | 0.0 | 1.6 | 0.00 | 0.00 | 0.00 | 49 | 1014.5 |
| 20260906021526 | 29 | 25 | 0.0 | 1.6 | 0.00 | 0.00 | 0.00 | 49 | 1014.5 |
| 20260906021025 | 29 | 306 | 0.0 | 1.6 | 0.00 | 0.00 | 0.00 | 50 | 1014.2 |
| 20260906020525 | 29 | 326 | 0.0 | 0.0 | 0.00 | 0.00 | 0.00 | 50 | 1014.2 |
| 20260906020024 | 30 | 299 | 0.0 | 1.6 | 0.00 | 0.00 | 0.00 | 49 | 1014.2 |
| 20260906015524 | 30 | 310 | 0.0 | 1.6 | 0.00 | 0.00 | 0.00 | 49 | 1014.6 |
| 20260906015024 | 30 | 343 | 0.0 | 0.0 | 0.00 | 0.00 | 0.00 | 49 | 1014.2 |
| 20260906014519 | 30 | 307 | 0.0 | 1.6 | 0.00 | 0.00 | 0.00 | 48 | 1014.3 |
| 20260906014015 | 30 | 331 | 0.0 | 1.6 | 0.00 | 0.00 | 0.00 | 48 | 1014.1 |
| 20260906013509 | 30 | 329 | 1.6 | 3.2 | 0.00 | 0.00 | 0.00 | 47 | 1014.1 |
| 20260906013005 | 31 | 304 | 1.6 | 3.2 | 0.00 | 0.00 | 0.00 | 46 | 1013.9 |
| 20260906012500 | 31 | 312 | 1.6 | 1.6 | 0.00 | 0.00 | 0.00 | 45 | 1013.8 |
| 20260906011959 | 31 | 316 | 1.6 | 3.2 | 0.00 | 0.00 | 0.00 | 44 | 1013.7 |
| 20260906011455 | 31 | 304 | 1.6 | 1.6 | 0.00 | 0.00 | 0.00 | 44 | 1013.5 |
| 20260906010950 | 32 | 335 | 1.6 | 1.6 | 0.00 | 0.00 | 0.00 | 43 | 1013.9 |
| 20260906010446 | 32 | 331 | 1.6 | 3.2 | 0.00 | 0.00 | 0.00 | 42 | 1013.4 |
| 20260906005942 | 32 | 336 | 0.0 | 1.6 | 0.00 | 0.00 | 0.00 | 42 | 1013.7 |
| 20260906005441 | 32 | 322 | 0.0 | 1.6 | 0.00 | 0.00 | 0.00 | 41 | 1013.5 |
| 20260906004940 | 33 | 55 | 0.0 | 3.2 | 0.00 | 0.00 | 0.00 | 40 | 1013.5 |
| 20260906004440 | 33 | 318 | 1.6 | 1.6 | 0.00 | 0.00 | 0.00 | 40 | 1013.5 |
| 20260906003936 | 33 | 22 | 0.0 | 1.6 | 0.00 | 0.00 | 0.00 | 39 | 1013.5 |
| 20260906003435 | 33 | 12 | 0.0 | 1.6 | 0.00 | 0.00 | 0.00 | 39 | 1013.3 |
| 20260906002931 | 34 | 322 | 0.0 | 1.6 | 0.00 | 0.00 | 0.00 | 38 | 1013.4 |
| 20260906002430 | 34 | 354 | 0.0 | 1.6 | 0.00 | 0.00 | 0.00 | 38 | 1013.4 |
| 20260906001926 | 34 | 325 | 0.0 | 1.6 | 0.00 | 0.00 | 0.00 | 37 | 1013.7 |
| 20260906001422 | 35 | 322 | 1.6 | 3.2 | 0.00 | 0.00 | 0.00 | 37 | 1013.7 |
| 20260906000917 | 35 | 337 | 0.0 | 3.2 | 0.00 | 0.00 | 0.00 | 37 | 1013.6 |
| 20260906000412 | 35 | 309 | 0.0 | 1.6 | 0.00 | 0.00 | 0.00 | 36 | 1013.5 |
| 20260905235907 | 35 | 300 | 1.6 | 1.6 | 0.00 | 0.00 | 0.00 | 36 | 1013.6 |
| 20260905235401 | 36 | 297 | 0.0 | 0.0 | 0.00 | 0.00 | 0.00 | 35 | 1013.6 |
| 20260905234856 | 36 | 44 | 0.0 | 1.6 | 0.00 | 0.00 | 0.00 | 34 | 1013.7 |
| 20260905234351 | 36 | 63 | 0.0 | 3.2 | 0.00 | 0.00 | 0.00 | 32 | 1013.5 |
| 20260905233846 | 37 | 328 | 0.0 | 3.2 | 0.00 | 0.00 | 0.00 | 31 | 1013.5 |
| 20260905233341 | 38 | 321 | 0.0 | 3.2 | 0.00 | 0.00 | 0.00 | 29 | 1013.8 |
| 20260905232840 | 38 | 245 | 1.6 | 1.6 | 0.00 | 0.00 | 0.00 | 29 | 1013.6 |
| 20260905232337 | 39 | 0 | 0.0 | 6.4 | 0.00 | 0.00 | 0.00 | 30 | 1013.5 |
| 20260905231832 | 40 | 297 | 0.0 | 3.2 | 0.00 | 0.00 | 0.00 | 28 | 1013.8 |
| 20260905231327 | 39 | 45 | 1.6 | 4.8 | 0.00 | 0.00 | 0.00 | 28 | 1013.8 |
| 20260905230823 | 40 | 191 | 0.0 | 4.8 | 0.00 | 0.00 | 0.00 | 28 | 1013.5 |
| 20260905230321 | 40 | 251 | 0.0 | 4.8 | 0.00 | 0.00 | 0.00 | 28 | 1013.7 |
| 20260905225821 | 40 | 71 | 1.6 | 4.8 | 0.00 | 0.00 | 0.00 | 27 | 1013.5 |
| 20260905225316 | 40 | 234 | 3.2 | 3.2 | 0.00 | 0.00 | 0.00 | 27 | 1013.7 |
| 20260905224816 | 40 | 21 | 1.6 | 3.2 | 0.00 | 0.00 | 0.00 | 26 | 1013.5 |
| 20260905224311 | 40 | 328 | 3.2 | 8.0 | 0.00 | 0.00 | 0.00 | 28 | 1013.6 |
| 20260905223806 | 40 | 225 | 0.0 | 4.8 | 0.00 | 0.00 | 0.00 | 27 | 1013.6 |
| 20260905223304 | 40 | 219 | 0.0 | 3.2 | 0.00 | 0.00 | 0.00 | 26 | 1013.5 |
| 20260905222759 | 40 | 0 | 0.0 | 3.2 | 0.00 | 0.00 | 0.00 | 27 | 1013.4 |
| 20260905222258 | 40 | 144 | 4.8 | 8.0 | 0.00 | 0.00 | 0.00 | 27 | 1013.4 |
| 20260905221754 | 40 | 198 | 0.0 | 6.4 | 0.00 | 0.00 | 0.00 | 26 | 1013.4 |
| 20260905221250 | 40 | 254 | 6.4 | 6.4 | 0.00 | 0.00 | 0.00 | 27 | 1013.4 |
| 20260905220746 | 41 | 242 | 0.0 | 4.8 | 0.00 | 0.00 | 0.00 | 26 | 1013.5 |
| 20260905220242 | 41 | 109 | 1.6 | 4.8 | 0.00 | 0.00 | 0.00 | 26 | 1013.4 |
| 20260905215741 | 41 | 52 | 3.2 | 4.8 | 0.00 | 0.00 | 0.00 | 26 | 1013.3 |
| 20260905215237 | 41 | 173 | 1.6 | 3.2 | 0.00 | 0.00 | 0.00 | 27 | 1013.4 |
| 20260905214733 | 41 | 186 | 0.0 | 12.9 | 0.00 | 0.00 | 0.00 | 27 | 1013.4 |
| 20260905214228 | 40 | 279 | 0.0 | 3.2 | 0.00 | 0.00 | 0.00 | 28 | 1013.4 |
| 20260905213723 | 40 | 5 | 0.0 | 3.2 | 0.00 | 0.00 | 0.00 | 28 | 1013.4 |
| 20260905213220 | 40 | 19 | 1.6 | 6.4 | 0.00 | 0.00 | 0.00 | 28 | 1013.5 |
| 20260905212715 | 41 | 9 | 3.2 | 4.8 | 0.00 | 0.00 | 0.00 | 28 | 1013.4 |
| 20260905212214 | 40 | 154 | 1.6 | 4.8 | 0.00 | 0.00 | 0.00 | 29 | 1013.5 |
| 20260905211713 | 40 | 336 | 1.6 | 4.8 | 0.00 | 0.00 | 0.00 | 29 | 1013.4 |
| 20260905211209 | 40 | 282 | 3.2 | 3.2 | 0.00 | 0.00 | 0.00 | 30 | 1013.6 |
| 20260905210706 | 39 | 105 | 3.2 | 4.8 | 0.00 | 0.00 | 0.00 | 30 | 1013.7 |
| 20260905210205 | 40 | 98 | 0.0 | 4.8 | 0.00 | 0.00 | 0.00 | 29 | 1013.8 |
| 20260905205705 | 41 | 62 | 0.0 | 3.2 | 0.00 | 0.00 | 0.00 | 29 | 1013.8 |
| 20260905205205 | 40 | 331 | 1.6 | 3.2 | 0.00 | 0.00 | 0.00 | 30 | 1013.8 |
| 20260905204705 | 40 | 304 | 0.0 | 4.8 | 0.00 | 0.00 | 0.00 | 30 | 1014.0 |
| 20260905204200 | 40 | 333 | 1.6 | 4.8 | 0.00 | 0.00 | 0.00 | 29 | 1014.0 |
| 20260905203654 | 40 | 95 | 0.0 | 3.2 | 0.00 | 0.00 | 0.00 | 30 | 1014.0 |
| 20260905203150 | 40 | 226 | 4.8 | 6.4 | 0.00 | 0.00 | 0.00 | 30 | 1014.3 |
| 20260905202645 | 40 | 71 | 0.0 | 6.4 | 0.00 | 0.00 | 0.00 | 31 | 1014.6 |
| 20260905202140 | 40 | 158 | 0.0 | 3.2 | 0.00 | 0.00 | 0.00 | 31 | 1014.5 |
| 20260905201636 | 40 | 76 | 1.6 | 3.2 | 0.00 | 0.00 | 0.00 | 31 | 1014.6 |
| 20260905201136 | 40 | 104 | 1.6 | 6.4 | 0.00 | 0.00 | 0.00 | 31 | 1014.6 |
| 20260905200631 | 40 | 353 | 3.2 | 8.0 | 0.00 | 0.00 | 0.00 | 31 | 1014.6 |
| 20260905200127 | 40 | 66 | 4.8 | 6.4 | 0.00 | 0.00 | 0.00 | 30 | 1014.9 |